Date String (YYYY-MM-DD hh:mm:ss) UTC,Instrument flags,Ambient pressure (hPa),Sample flow (lpm),Bypass flow (lpm),Sample temperature (°C),Ambient temperature (°C),ASC tube jacket temperature (°C),LED temperature (°C),Box temperature (°C),Sample RH (%),Span deviation,Mass concentration (μg/m³),Mass concentration (μg/m³),Mass concentration (μg/m³)
DateTimeUTC,F1_M11,P_M11,Q1_M11,Q2_M11,T1_M11,T2_M11,T3_M11,T4_M11,T5_M11,U1_M11,ZSPAN_M11,X0_M11,X2_M11,X1_M11
2022-04-13 22:00:00,,0819.1,5.00,0.00,21.5,20.3,00.0,30.7,22.9,04.9,0000.0,0005.34,0001.63,0000.99
2022-04-13 22:01:00,,0819.1,5.00,0.00,21.4,20.2,00.0,30.7,22.9,05.1,0000.0,0005.07,0001.69,0001.01
2022-04-13 22:02:00,,0819.0,5.01,0.00,21.3,20.2,00.0,30.7,22.9,05.2,0000.0,0005.96,0001.75,0001.02
2022-04-13 22:03:00,,0819.0,5.00,0.00,21.3,20.6,00.0,30.7,22.9,04.9,0000.0,0005.83,0001.78,0001.03
2022-04-13 22:04:00,,0819.1,5.00,0.00,21.5,21.7,00.0,30.7,23.3,04.3,0000.0,0006.02,0001.85,0001.05
2022-04-13 22:05:00,,0819.2,5.01,0.00,21.7,22.7,00.0,30.7,23.6,04.3,0000.0,0006.73,0001.89,0001.05
2022-04-13 22:06:00,,0819.1,5.01,0.00,21.8,22.8,00.0,30.7,23.8,04.5,0000.0,0007.39,0001.92,0001.07
2022-04-13 22:07:00,,0819.1,4.99,0.00,21.8,22.5,00.0,30.7,23.7,04.8,0000.0,0007.25,0001.91,0001.06
2022-04-13 22:08:00,,0819.1,5.00,0.00,21.8,22.1,00.0,30.8,23.6,04.9,0000.0,0006.92,0001.89,0001.06
2022-04-13 22:09:00,,0819.1,5.02,0.00,21.8,21.8,00.0,30.7,23.5,04.9,0000.0,0007.54,0001.87,0001.06
2022-04-13 22:10:00,,0819.0,4.99,0.00,21.8,21.6,00.0,30.7,23.5,04.7,0000.0,0007.58,0001.86,0001.07
2022-04-13 22:11:00,,0819.0,5.01,0.00,21.8,21.5,00.0,30.7,23.5,04.2,0000.0,0007.56,0001.84,0001.07
2022-04-13 22:12:00,,0819.1,5.00,0.00,21.8,21.4,00.0,30.8,23.5,04.7,0000.0,0007.43,0001.78,0001.07
2022-04-13 22:13:00,,0819.1,5.00,0.00,21.8,21.3,00.0,30.8,23.4,04.8,0000.0,0005.93,0001.78,0001.07
2022-04-13 22:14:00,,0819.1,5.00,0.00,21.8,21.2,00.0,30.8,23.4,04.2,0000.0,0005.85,0001.74,0001.08
2022-04-13 22:15:00,,0819.0,5.00,0.00,21.7,21.1,00.0,30.7,23.4,04.1,0000.0,0005.76,0001.69,0001.08
2022-04-13 22:16:00,,0818.8,5.00,0.00,21.7,21.1,00.0,30.7,23.4,04.1,0000.0,0005.07,0001.67,0001.09
2022-04-13 22:17:00,,0819.0,5.00,0.00,21.7,21.0,00.0,30.7,23.4,03.9,0000.0,0004.34,0001.67,0001.09
2022-04-13 22:18:00,,0819.0,5.00,0.00,21.7,21.0,00.0,30.7,23.4,03.8,0000.0,0004.09,0001.67,0001.09
2022-04-13 22:19:00,,0818.9,4.99,0.00,21.7,20.9,00.0,30.7,23.4,03.9,0000.0,0004.05,0001.67,0001.09
2022-04-13 22:20:00,,0819.0,5.00,0.00,21.7,20.9,00.0,30.7,23.4,04.0,0000.0,0003.58,0001.70,0001.09
2022-04-13 22:21:00,,0819.0,5.00,0.00,21.7,20.9,00.0,30.7,23.4,04.0,0000.0,0003.51,0001.73,0001.10
2022-04-13 22:22:00,,0818.9,5.00,0.00,21.7,20.8,00.0,30.7,23.3,03.8,0000.0,0003.87,0001.78,0001.11
2022-04-13 22:23:00,,0818.9,4.99,0.00,21.7,20.8,00.0,30.7,23.3,03.8,0000.0,0003.79,0001.78,0001.12
2022-04-13 22:24:00,,0819.0,5.00,0.00,21.7,20.8,00.0,30.7,23.3,03.9,0000.0,0003.71,0001.77,0001.12
2022-04-13 22:25:00,,0819.1,5.00,0.00,21.7,20.8,00.0,30.7,23.3,04.1,0000.0,0003.72,0001.77,0001.11
2022-04-13 22:26:00,,0819.2,5.00,0.00,21.6,20.8,00.0,30.7,23.3,04.2,0000.0,0004.43,0001.79,0001.12
2022-04-13 22:27:00,,0819.2,5.00,0.00,21.6,20.8,00.0,30.7,23.3,04.7,0000.0,0005.30,0001.80,0001.13
2022-04-13 22:28:00,,0819.2,5.00,0.00,21.6,20.8,00.0,30.7,23.3,05.1,0000.0,0005.24,0001.80,0001.14
2022-04-13 22:29:00,,0819.2,5.00,0.00,21.6,20.8,00.0,30.7,23.3,04.3,0000.0,0005.28,0001.80,0001.14
2022-04-13 22:30:00,,0819.2,5.00,0.00,21.6,20.8,00.0,30.7,23.3,04.2,0000.0,0005.59,0001.80,0001.14
2022-04-13 22:31:00,,0819.2,5.01,0.00,21.7,20.8,00.0,30.7,23.3,04.2,0000.0,0005.46,0001.79,0001.16
2022-04-13 22:32:00,,0819.2,4.99,0.00,21.7,20.8,00.0,30.7,23.3,04.0,0000.0,0006.76,0001.76,0001.15
2022-04-13 22:33:00,,0819.2,5.00,0.00,21.6,20.8,00.0,30.7,23.3,03.9,0000.0,0006.76,0001.74,0001.14
2022-04-13 22:34:00,,0819.1,4.99,0.00,21.6,20.7,00.0,30.6,23.3,03.7,0000.0,0006.75,0001.72,0001.12
2022-04-13 22:35:00,,0819.2,5.01,0.00,21.7,21.0,00.0,30.7,23.4,03.7,0000.0,0006.68,0001.70,0001.11
2022-04-13 22:36:00,,0819.2,4.99,0.00,21.8,21.9,00.0,30.7,23.7,03.7,0000.0,0006.80,0001.72,0001.11
2022-04-13 22:37:00,,0819.2,5.01,0.00,21.9,22.9,00.0,30.8,24.0,03.7,0000.0,0006.50,0001.70,0001.09
2022-04-13 22:38:00,,0819.3,4.99,0.00,22.1,23.1,00.0,30.8,24.1,03.7,0000.0,0006.11,0001.63,0001.07
2022-04-13 22:39:00,,0819.3,5.00,0.00,22.1,22.8,00.0,30.8,24.1,03.7,0000.0,0006.27,0001.57,0001.05
2022-04-13 22:40:00,,0819.2,4.99,0.00,22.1,22.5,00.0,30.9,24.0,03.7,0000.0,0006.18,0001.54,0001.04
2022-04-13 22:41:00,,0819.2,5.01,0.00,22.1,22.2,00.0,30.9,24.0,03.8,0000.0,0005.92,0001.56,0001.03
2022-04-13 22:42:00,,0819.3,4.99,0.00,22.1,22.0,00.0,30.9,23.9,03.9,0000.0,0005.93,0001.57,0001.02
2022-04-13 22:43:00,,0819.2,5.01,0.00,22.1,21.9,00.0,30.9,23.9,04.0,0000.0,0004.52,0001.58,0001.02
2022-04-13 22:44:00,,0819.2,5.00,0.00,22.1,21.7,00.0,30.9,23.8,04.0,0000.0,0004.19,0001.56,0001.01
2022-04-13 22:45:00,,0819.3,5.00,0.00,22.0,21.6,00.0,30.9,23.8,04.0,0000.0,0004.41,0001.60,0001.02
2022-04-13 22:46:00,,0819.3,5.00,0.00,22.0,21.4,00.0,30.9,23.7,03.9,0000.0,0004.60,0001.65,0001.03
2022-04-13 22:47:00,,0819.4,4.99,0.00,22.0,21.3,00.0,30.9,23.6,04.0,0000.0,0004.48,0001.63,0001.03
2022-04-13 22:48:00,,0819.3,5.00,0.00,21.9,21.3,00.0,30.9,23.6,04.1,0000.0,0004.40,0001.65,0001.03
2022-04-13 22:49:00,,0819.3,5.00,0.00,21.9,21.2,00.0,30.9,23.5,04.3,0000.0,0003.67,0001.73,0001.04
2022-04-13 22:50:00,,0819.4,5.00,0.00,21.9,21.1,00.0,30.9,23.5,05.5,0000.0,0003.53,0001.79,0001.04
2022-04-13 22:51:00,,0819.4,5.00,0.00,21.9,21.0,00.0,30.9,23.5,05.0,0000.0,0003.95,0001.82,0001.05
2022-04-13 22:52:00,,0819.4,5.00,0.00,21.9,21.0,00.0,30.9,23.6,04.3,0000.0,0004.43,0001.81,0001.04
2022-04-13 22:53:00,,0819.5,5.01,0.00,21.9,21.1,00.0,30.9,23.6,04.2,0000.0,0004.41,0001.78,0001.03
2022-04-13 22:54:00,,0819.5,5.01,0.00,21.9,21.1,00.0,30.9,23.6,04.1,0000.0,0005.39,0001.79,0001.02
2022-04-13 22:55:00,,0819.5,5.00,0.00,21.9,21.1,00.0,30.9,23.6,04.1,0000.0,0005.44,0001.81,0001.03
2022-04-13 22:56:00,,0819.5,5.00,0.00,21.9,21.0,00.0,30.9,23.5,04.2,0000.0,0005.41,0001.81,0001.02
2022-04-13 22:57:00,,0819.5,5.00,0.00,21.9,21.0,00.0,30.9,23.5,04.3,0000.0,0005.21,0001.76,0001.02
2022-04-13 22:58:00,,0819.5,5.00,0.00,21.9,21.0,00.0,30.9,23.6,04.3,0000.0,0005.11,0001.73,0001.04
2022-04-13 22:59:00,,0819.5,5.00,0.00,21.9,21.0,00.0,30.9,23.5,04.3,0000.0,0004.99,0001.72,0001.05
